Temperature
16 16 16 16 16 16 15 15 15 15 15 15 14 14 14 14 14 13 13 13 13 13 13 13 13 13 13 13 13 12 13 13 13 12 12 12 12 12 12 11 11 11 11
16 16 16 15 15 15 15 15 15 15 15 14 14 14 14 14 13 13 13 13 13 13 13 13 13 13 13 12 12 12 12 12 12 12 12 12 12 11 11 11 11 11 11
16 16 15 15 15 15 15 15 15 14 14 14 14 14 14 14 13 13 13 13 13 13 13 13 13 13 12 12 12 12 12 12 12 12 12 12 11 11 11 11 11 11 11
16 15 15 15 15 15 15 15 14 14 14 14 14 14 14 13 13 13 13 13 13 13 13 13 13 12 12 12 12 12 12 12 12 12 12 11 11 11 11 11 11 10 10
15 15 15 15 15 15 15 14 14 14 14 14 14 13 13 13 13 13 13 13 13 13 13 13 12 12 12 12 12 12 12 12 11 11 11 11 11 11 11 11 10 10 10
15 15 15 15 14 14 14 14 14 14 14 13 13 13 13 13 13 13 13 13 12 12 12 12 12 12 12 12 12 12 12 11 11 11 11 11 11 11 11 10 10 10 10
15 15 14 14 14 14 14 14 14 13 13 13 13 13 13 13 13 13 12 12 12 12 12 12 12 12 12 12 11 11 11 11 11 11 11 11 11 11 10 10 10 10 10
15 14 14 14 14 14 14 14 13 13 13 13 13 13 13 13 12 12 12 12 12 12 12 12 12 12 11 11 11 11 11 11 11 11 11 10 10 10 10 10 10 10 10
14 14 14 14 14 14 13 13 13 13 13 13 13 12 12 12 12 12 12 12 12 11 11 11 11 11 11 11 11 11 11 11 10 10 10 10 10 10 10 10 9 9 9
14 14 14 13 13 13 13 13 13 13 13 12 12 12 12 12 12 12 12 11 11 11 11 11 11 11 11 11 11 10 10 10 10 10 10 10 10 10 9 9 9 9 9
13 13 13 13 13 13 13 13 12 12 12 12 12 12 12 12 12 11 11 11 11 11 11 11 10 11 10 10 10 10 10 10 10 10 9 9 9 9 9 9 9 9 9
13 13 13 13 13 12 12 12 12 12 12 12 11 11 11 11 11 11 11 11 11 11 11 10 10 10 10 10 10 10 10 10 9 9 9 9 9 9 9 9 9 9 8
13 13 13 12 12 12 12 12 12 11 11 11 11 11 11 11 11 11 11 11 11 10 10 10 10 10 10 10 9 9 9 9 9 9 8 8 8 8 8 8 8 8 8
12 12 12 12 12 12 11 11 11 11 11 11 11 11 11 11 11 11 11 10 10 10 10 10 9 9 9 9 9 9 9 9 8 8 8 8 8 8 8 8 8 8 8
12 12 12 11 11 11 11 11 11 11 11 11 11 11 10 10 10 10 10 10 10 10 9 9 9 9 9 9 9 9 8 8 8 8 8 8 7 7 7 7 7 7 7
11 11 11 11 11 11 11 11 10 10 10 10 10 10 10 10 10 10 10 10 9 9 9 9 9 8 8 8 8 8 8 8 8 7 7 7 7 7 7 7 7 7 6
11 11 11 11 11 10 10 10 10 10 10 10 10 10 10 10 9 9 9 9 9 9 8 8 8 8 8 8 8 7 7 7 7 7 7 7 7 6 6 6 6 6 6
10 10 10 10 10 10 10 10 10 10 9 9 9 9 9 9 9 9 9 8 8 8 8 8 8 8 8 7 7 7 7 7 7 6 6 6 6 6 6 6 6 6 5
9 9 9 9 9 9 9 9 9 9 9 9 9 9 9 9 8 8 8 8 8 8 8 7 7 7 7 7 7 6 6 6 6 6 6 6 6 5 5 5 5 5 5
8 9 9 9 9 9 8 8 8 8 8 8 8 8 8 8 8 8 8 8 7 7 7 7 7 7 7 6 6 6 6 6 6 6 5 5 5 5 5 5 4 4 4
8 8 8 8 8 8 8 8 8 8 8 8 7 7 8 8 7 7 7 7 7 7 7 7 7 6 6 6 6 6 5 5 5 5 5 5 5 4 4 4 4 4 4
7 7 7 7 7 7 7 7 7 7 7 7 7 7 7 7 7 6 6 6 6 6 6 6 6 6 6 6 5 5 5 5 5 5 5 4 4 4 4 4 3 3 3
6 6 7 7 7 7 7 7 7 7 7 7 6 6 6 6 6 6 6 6 6 6 6 6 6 5 5 5 5 5 5 5 5 5 4 4 4 4 4 3 3 3 3
6 6 6 6 6 6 6 6 6 6 6 6 6 6 6 6 6 5 5 5 5 5 5 5 5 5 5 5 5 5 5 4 4 4 4 4 4 3 3 3 3 3 3
5 5 5 5 5 5 5 5 5 5 5 5 5 5 5 5 5 5 5 5 5 5 5 5 5 4 4 4 4 4 4 4 4 4 4 3 3 3 3 3 3 2 2
5 5 4 4 4 4 4 4 4 4 4 4 4 4 4 4 4 4 4 4 4 4 4 4 4 4 4 4 4 4 4 4 3 3 3 3 3 3 2 2 2 2 2
Wind_Speed
3 2 2 2 2 3 3 4 4 4 4 4 4 4 4 4 4 4 4 3 3 3 3 3 3 2 1 1 1 0 1 0 2 1 1 2 2 2 2 4 7 7 7
3 2 2 2 2 2 3 3 3 3 3 3 4 4 4 4 4 5 5 4 4 4 4 3 4 3 2 1 1 1 1 1 2 2 1 1 2 3 3 3 4 6 7
2 2 2 3 3 2 2 2 3 3 3 3 3 4 3 3 4 4 5 6 5 5 4 4 4 4 4 3 2 2 1 1 1 2 2 1 1 2 2 2 2 2 5
2 2 3 3 2 2 2 2 2 2 2 2 2 2 3 3 3 3 4 4 4 5 5 4 3 4 5 4 3 3 2 1 1 1 1 2 2 2 2 2 2 2 2
3 3 3 3 2 2 3 2 2 2 3 3 3 3 3 3 3 3 3 3 3 3 3 3 3 2 3 3 2 2 2 1 1 1 2 1 2 2 2 2 2 2 2
3 3 2 3 3 2 2 3 2 3 3 2 2 3 2 2 2 3 2 3 3 3 2 2 2 3 3 3 3 3 4 3 3 2 2 3 3 2 2 2 1 1 2
2 1 1 1 2 2 2 2 3 3 3 3 3 2 2 2 4 4 4 2 2 3 3 3 2 3 3 3 4 4 3 4 5 4 4 4 3 2 2 2 2 2 3
1 1 1 1 1 1 2 3 4 3 3 3 3 3 3 3 4 5 5 4 3 3 3 3 3 3 3 3 3 2 3 4 5 5 4 4 3 2 2 3 3 2 2
1 1 1 1 1 2 3 3 3 3 3 3 3 3 3 3 5 5 5 3 3 3 3 2 2 2 3 3 2 2 3 3 3 6 6 5 3 3 2 1 1 1 2
1 2 2 2 2 2 3 3 2 3 3 2 2 3 3 3 4 5 5 3 3 3 2 2 2 2 3 2 3 3 3 3 2 2 2 3 4 4 5 4 4 3 2
1 2 2 2 2 2 2 1 2 2 2 2 2 2 3 3 5 5 5 3 3 3 2 2 2 3 3 2 2 3 4 3 2 3 3 3 3 3 3 4 3 4 4
2 2 2 2 2 2 2 2 2 2 3 3 3 3 2 3 3 5 6 5 3 2 2 2 2 2 2 3 3 3 4 3 2 2 2 3 3 3 3 3 3 3 4
2 2 2 2 2 2 3 3 2 3 3 3 3 3 2 1 2 5 6 6 5 3 2 3 3 2 2 2 3 4 3 2 2 3 3 4 3 3 2 1 1 1 2
2 2 2 2 2 2 2 2 2 3 3 3 3 3 3 2 2 2 3 3 4 3 2 2 2 3 3 3 3 3 3 3 3 3 3 3 2 2 2 2 2 2 2
3 3 2 2 2 2 2 2 2 2 3 4 4 4 4 3 4 5 4 3 3 3 3 2 1 1 2 1 2 2 2 2 2 3 3 3 2 2 2 2 2 2 3
3 3 2 2 2 2 2 1 0 1 2 3 3 3 3 4 6 6 6 5 5 5 4 2 3 3 3 3 3 2 2 3 2 2 2 2 3 3 2 2 2 2 3
3 2 2 1 1 1 2 2 2 1 1 1 3 3 3 4 5 6 7 6 5 6 3 3 3 3 3 3 3 3 3 3 2 2 2 2 2 2 2 2 2 2 3
3 3 2 1 1 1 2 2 2 2 2 1 2 3 3 4 5 6 6 5 3 3 3 3 3 3 2 2 2 2 2 2 2 2 2 2 3 3 2 3 3 3 3
3 2 2 1 2 2 2 2 1 1 1 1 1 1 2 3 4 5 6 4 4 4 3 3 3 3 3 3 3 2 2 2 2 2 2 2 2 2 2 3 3 3 3
3 4 3 2 2 2 2 2 1 1 1 1 2 2 2 2 2 3 3 3 4 4 3 3 3 3 3 3 3 2 2 2 3 2 2 2 2 2 3 3 3 3 3
3 3 4 3 2 2 2 2 2 2 2 2 2 2 3 3 4 4 4 4 4 4 4 4 3 3 3 3 2 3 3 3 3 3 2 3 3 2 3 3 3 3 3
3 2 2 2 2 2 2 2 2 2 2 2 1 1 4 3 3 3 4 4 4 3 3 2 3 3 3 3 3 3 3 3 3 3 3 3 3 3 3 3 3 3 3
3 3 2 2 2 2 2 2 1 1 1 2 1 1 2 2 2 2 3 3 3 3 2 2 2 2 1 2 3 3 3 3 3 3 3 3 3 4 3 3 4 4 4
3 3 3 2 2 2 2 2 2 2 1 1 1 1 1 2 2 2 2 2 2 2 2 2 2 3 3 2 1 2 2 3 3 3 3 3 3 3 3 3 4 4 4
3 3 3 2 2 2 2 2 2 2 2 1 1 1 1 1 1 2 1 1 2 2 2 1 1 2 3 3 1 1 2 3 3 3 3 3 3 3 3 4 4 4 4
3 3 3 2 2 2 2 2 2 2 2 2 1 1 1 1 1 1 1 1 1 1 1 1 1 1 1 1 2 2 3 3 3 3 3 2 3 3 3 3 4 4 4
Wind_Direction
194 200 171 202 194 174 199 192 178 184 185 189 192 191 189 188 184 177 194 198 189 202 210 194 193 187 189 189 190 233 284 165 186 234 184 167 155 167 168 182 174 167 178
186 194 185 187 190 195 200 196 180 183 186 197 199 195 200 197 190 188 203 201 201 209 220 200 195 193 191 198 194 214 237 226 169 199 219 189 183 181 176 202 185 179 183
166 179 188 190 190 199 203 189 179 179 190 207 206 202 201 201 204 203 202 203 204 205 209 211 205 190 196 194 199 208 223 244 168 173 213 210 213 193 184 212 204 185 192
171 199 204 197 198 197 199 194 182 180 186 213 209 199 205 209 214 218 215 211 209 207 205 210 209 197 194 189 196 194 194 210 194 172 206 218 224 226 182 202 230 232 219
181 210 218 204 202 209 193 185 181 190 210 214 210 204 210 208 218 218 213 214 224 226 213 205 188 166 153 169 181 182 180 197 205 196 219 236 232 216 216 216 221 236 237
198 220 217 209 204 203 188 180 185 199 211 212 216 205 212 220 204 189 195 209 211 217 225 214 181 167 164 161 172 176 173 192 207 207 227 228 232 217 215 222 220 207 262
193 202 209 221 213 195 196 194 191 196 202 207 212 203 203 214 206 191 192 198 215 214 212 219 219 202 185 189 196 203 209 220 216 203 213 229 225 228 215 232 229 212 225
168 197 224 220 214 196 193 203 203 204 200 204 214 209 203 217 207 200 202 204 228 221 213 218 207 199 205 201 203 200 218 234 226 211 210 221 218 212 193 211 221 237 254
162 226 235 213 205 210 210 208 209 211 211 205 203 207 200 209 205 201 197 198 213 212 209 223 223 199 187 188 182 216 235 241 215 193 198 203 213 222 205 202 234 218 259
213 219 223 206 200 214 219 214 217 211 207 204 202 198 190 198 202 195 188 186 202 209 206 210 218 201 188 169 180 204 230 240 228 220 221 234 234 235 224 211 208 214 223
254 236 217 195 192 204 200 207 210 200 191 198 200 202 195 202 201 198 192 194 202 203 199 196 206 191 197 214 223 216 232 240 230 222 223 228 230 222 219 219 207 203 210
237 220 210 203 201 205 185 207 207 196 197 201 200 208 213 206 188 197 198 207 211 194 202 195 190 184 209 242 247 229 237 254 242 230 228 231 229 228 227 219 212 206 203
246 226 217 214 206 199 190 196 204 200 203 204 202 209 208 192 189 191 194 203 207 202 204 190 190 192 205 225 226 237 244 234 219 220 224 226 222 219 221 239 223 225 240
257 241 224 221 219 203 190 192 199 203 202 201 206 213 207 187 189 186 191 201 200 199 203 186 198 221 228 225 231 241 233 221 213 223 223 222 219 218 225 219 218 214 240
265 254 232 218 211 203 193 198 203 206 202 205 209 202 196 205 205 188 184 195 193 187 166 161 187 207 214 222 229 232 227 215 226 231 225 224 219 221 229 221 216 215 219
288 274 266 229 207 200 190 193 260 220 212 205 199 200 217 207 187 184 184 187 184 169 158 184 202 208 210 214 216 223 228 223 222 229 235 220 216 217 225 225 214 209 222
301 300 298 287 250 220 207 201 224 306 355 226 207 204 205 194 182 183 184 180 176 164 174 199 212 218 218 218 220 223 231 226 214 213 228 230 222 222 221 224 222 221 229
309 312 309 279 268 251 242 233 221 214 224 269 254 219 210 196 183 180 173 151 168 183 200 204 211 215 216 219 226 232 236 229 217 216 223 228 225 223 224 224 225 228 233
309 307 302 287 269 257 253 246 240 238 227 223 203 217 202 180 170 174 162 174 192 205 211 211 208 207 209 212 218 221 223 229 222 215 223 222 222 218 226 228 226 236 234
309 313 316 295 273 260 248 245 240 235 233 221 218 205 164 151 171 189 201 210 205 206 208 212 212 210 208 211 212 210 220 226 218 220 224 221 219 218 225 230 230 231 231
308 302 309 305 290 276 265 253 238 228 237 240 238 214 181 196 204 208 213 220 218 215 213 213 211 212 211 208 207 216 224 222 214 215 219 221 220 227 227 226 232 232 231
309 304 296 292 293 293 289 272 253 241 242 248 260 229 190 206 210 207 212 223 224 223 220 215 215 212 205 204 211 217 222 223 221 219 218 215 216 221 226 232 232 234 229
294 299 301 300 296 295 296 299 291 259 252 245 225 204 196 216 227 222 223 223 221 221 217 219 214 207 204 201 199 201 216 222 221 212 214 215 217 217 218 226 230 233 229
282 287 290 294 305 310 306 302 298 290 274 261 251 222 216 218 231 236 234 237 235 229 223 220 212 204 209 212 200 190 191 192 192 200 201 207 216 219 220 225 232 232 230
286 286 282 281 286 288 287 284 290 295 295 286 271 254 240 235 244 251 255 244 231 237 237 230 218 213 215 209 190 175 185 192 201 198 197 206 210 217 223 223 224 227 228
284 283 280 275 273 277 281 283 284 288 288 291 293 283 262 250 251 258 263 262 264 264 260 267 273 260 238 205 189 182 186 198 213 220 208 212 210 219 222 227 223 225 225
Height
1511 1512 1513 1514 1515 1516 1517 1518 1519 1520 1521 1522 1523 1524 1524 1525 1526 1526 1527 1528 1528 1529 1530 1530 1531 1531 1532 1532 1533 1534 1534 1535 1534 1534 1535 1535 1535 1535 1535 1534 1534 1534 1533
1508 1509 1511 1512 1513 1514 1514 1515 1516 1517 1518 1519 1520 1521 1522 1523 1523 1524 1524 1525 1526 1526 1527 1528 1528 1529 1529 1530 1530 1531 1532 1532 1533 1532 1532 1533 1533 1533 1533 1533 1532 1532 1532
1505 1507 1508 1509 1510 1511 1512 1513 1514 1514 1515 1516 1517 1518 1519 1520 1520 1521 1522 1522 1523 1524 1524 1525 1526 1526 1527 1527 1528 1528 1529 1529 1530 1530 1530 1531 1531 1531 1531 1531 1531 1530 1530
1503 1504 1505 1506 1507 1508 1509 1510 1511 1511 1512 1513 1514 1515 1516 1516 1517 1518 1519 1519 1520 1521 1521 1522 1523 1523 1524 1524 1525 1525 1526 1526 1527 1527 1528 1528 1528 1529 1529 1529 1528 1528 1528
1501 1502 1503 1503 1504 1505 1506 1507 1507 1508 1509 1510 1511 1512 1512 1513 1514 1514 1515 1516 1517 1517 1518 1519 1519 1520 1521 1521 1522 1522 1522 1523 1523 1524 1525 1525 1525 1526 1526 1526 1526 1526 1526
1498 1499 1500 1500 1501 1502 1502 1503 1504 1505 1505 1506 1507 1508 1509 1509 1510 1511 1512 1512 1513 1514 1515 1515 1516 1517 1517 1518 1518 1518 1519 1520 1520 1521 1521 1522 1522 1522 1523 1523 1523 1523 1523
1495 1496 1496 1497 1498 1498 1499 1500 1500 1501 1502 1503 1504 1504 1505 1505 1507 1507 1508 1509 1510 1510 1511 1512 1513 1513 1514 1514 1514 1515 1515 1516 1517 1517 1517 1518 1518 1519 1520 1520 1520 1520 1519
1492 1493 1493 1494 1494 1495 1495 1496 1497 1497 1498 1499 1499 1500 1501 1502 1503 1504 1505 1505 1506 1507 1508 1508 1509 1509 1510 1511 1511 1511 1512 1512 1513 1513 1514 1514 1515 1516 1516 1517 1516 1516 1516
1489 1489 1490 1491 1491 1491 1492 1492 1493 1494 1494 1495 1495 1496 1497 1498 1499 1500 1501 1501 1502 1503 1504 1505 1506 1506 1507 1507 1507 1507 1508 1508 1509 1509 1510 1510 1511 1511 1512 1512 1512 1512 1512
1486 1486 1487 1488 1488 1488 1488 1489 1490 1490 1491 1491 1492 1493 1493 1494 1495 1496 1497 1497 1498 1499 1500 1501 1502 1503 1503 1503 1504 1504 1504 1504 1505 1505 1506 1506 1506 1506 1507 1508 1508 1508 1508
1484 1484 1484 1484 1484 1484 1485 1485 1486 1487 1487 1488 1488 1489 1490 1490 1491 1492 1493 1494 1494 1495 1496 1496 1498 1499 1499 1500 1500 1500 1500 1500 1500 1501 1501 1501 1502 1502 1502 1503 1503 1503 1504
1481 1481 1481 1481 1481 1481 1481 1482 1482 1483 1483 1484 1484 1485 1485 1486 1487 1488 1489 1490 1491 1491 1492 1493 1494 1494 1495 1495 1495 1495 1496 1496 1496 1496 1496 1496 1497 1497 1497 1498 1498 1498 1499
1478 1477 1478 1478 1478 1478 1478 1478 1479 1479 1479 1480 1480 1481 1481 1482 1483 1484 1485 1486 1486 1487 1488 1489 1490 1490 1491 1491 1491 1491 1492 1491 1491 1491 1491 1491 1492 1493 1493 1493 1493 1494 1494
1475 1474 1474 1474 1474 1475 1475 1475 1475 1475 1475 1476 1476 1477 1477 1478 1479 1480 1480 1481 1482 1483 1484 1485 1485 1486 1486 1486 1487 1487 1487 1487 1487 1487 1487 1487 1488 1488 1488 1488 1488 1489 1489
1472 1471 1471 1471 1471 1471 1471 1471 1471 1471 1472 1472 1472 1473 1473 1473 1474 1476 1476 1477 1478 1478 1479 1480 1480 1481 1481 1481 1482 1482 1483 1483 1483 1483 1483 1483 1483 1483 1484 1484 1484 1484 1485
1468 1468 1468 1467 1467 1467 1467 1467 1467 1468 1468 1469 1469 1470 1470 1470 1471 1472 1472 1473 1474 1475 1475 1475 1475 1476 1477 1477 1477 1478 1478 1478 1479 1479 1479 1479 1478 1479 1479 1480 1480 1480 1480
1465 1465 1464 1464 1463 1463 1463 1463 1463 1463 1464 1464 1465 1465 1466 1466 1467 1468 1468 1469 1470 1470 1470 1470 1471 1472 1472 1473 1473 1473 1473 1474 1474 1474 1474 1474 1474 1474 1475 1475 1475 1475 1476
1462 1461 1461 1460 1460 1460 1459 1459 1459 1459 1459 1459 1460 1461 1461 1462 1462 1463 1464 1464 1464 1465 1465 1466 1466 1467 1468 1468 1468 1468 1469 1469 1469 1469 1470 1469 1470 1469 1470 1470 1470 1471 1471
1459 1458 1458 1457 1457 1456 1456 1456 1456 1456 1455 1455 1455 1456 1457 1457 1458 1458 1459 1459 1459 1459 1460 1461 1462 1462 1463 1463 1463 1464 1464 1464 1464 1465 1465 1465 1465 1465 1465 1465 1466 1466 1467
1456 1455 1454 1454 1453 1452 1452 1452 1452 1452 1451 1451 1451 1451 1452 1452 1452 1453 1453 1454 1454 1455 1455 1456 1457 1458 1458 1458 1458 1459 1459 1459 1459 1460 1460 1460 1460 1460 1460 1460 1461 1461 1461
1453 1452 1451 1450 1449 1449 1448 1448 1448 1448 1448 1448 1448 1448 1447 1447 1448 1448 1449 1449 1450 1450 1451 1451 1452 1452 1453 1453 1453 1453 1453 1453 1454 1454 1454 1454 1455 1455 1455 1455 1456 1456 1456
1449 1448 1447 1447 1446 1445 1445 1445 1444 1444 1444 1444 1444 1444 1444 1444 1444 1444 1445 1445 1445 1446 1447 1447 1447 1448 1448 1448 1448 1448 1448 1448 1448 1448 1449 1449 1449 1449 1450 1450 1451 1451 1451
1446 1445 1444 1443 1443 1442 1441 1441 1441 1441 1440 1440 1440 1440 1440 1440 1439 1439 1440 1440 1441 1441 1441 1442 1442 1443 1443 1443 1443 1443 1443 1443 1443 1443 1443 1443 1444 1444 1444 1445 1445 1446 1446
1442 1441 1440 1440 1439 1438 1438 1438 1437 1437 1437 1437 1436 1436 1436 1435 1435 1435 1435 1436 1436 1436 1437 1437 1438 1438 1438 1438 1438 1438 1438 1438 1438 1438 1438 1438 1438 1439 1439 1440 1440 1441 1441
1438 1437 1436 1436 1435 1435 1434 1434 1434 1434 1433 1433 1433 1432 1432 1432 1432 1431 1431 1432 1432 1432 1432 1432 1433 1433 1433 1433 1433 1433 1433 1433 1433 1433 1433 1433 1433 1433 1434 1434 1434 1435 1436
1434 1433 1432 1432 1431 1431 1431 1430 1430 1430 1430 1429 1429 1429 1428 1428 1428 1428 1428 1427 1427 1427 1427 1427 1427 1428 1428 1428 1428 1428 1428 1427 1427 1427 1427 1427 1427 1428 1428 1428 1429 1430 1430